Location: Vancouver
(49.2500°N, 123.1330°W)
Time: 14:52:47
(UTC-07:00)

A-11 Canister half - Visible Passes

Search period start: 18 October 2017 00:00
Search period end: 28 October 2017 00:00
Orbit: 1527 x 1682 km, 47.3° (Epoch: 17 October)

Date Brightness Start Highest point End Pass type
(mag) Time Alt. Az. Time Alt. Az. Time Alt. Az.
18 Oct 10.4 02:40:03 24° ESE 02:40:03 24° ESE 02:44:26 10° E visible
18 Oct 9.1 04:38:21 50° SSW 04:40:40 63° SSE 04:49:47 10° E visible
18 Oct 9.0 06:36:39 13° W 06:45:21 81° S 06:54:42 10° E visible
19 Oct 10.6 02:19:43 19° E 02:19:43 19° E 02:22:48 10° E visible
19 Oct 9.0 04:18:02 58° S 04:19:06 61° SSE 04:28:12 10° E visible
19 Oct 9.0 06:16:20 18° W 06:23:46 81° S 06:33:07 10° E visible
20 Oct 10.8 01:59:23 15° E 01:59:23 15° E 02:01:08 10° E visible
20 Oct 9.1 03:57:41 60° SSE 03:57:41 60° SSE 04:06:37 10° E visible
20 Oct 9.0 05:55:59 25° W 06:02:11 81° S 06:11:31 10° E visible
21 Oct 11.0 01:39:02 11° E 01:39:02 11° E 01:39:28 10° E visible
21 Oct 9.3 03:37:20 54° ESE 03:37:20 54° ESE 03:45:02 10° ENE visible
21 Oct 8.9 05:35:38 32° W 05:40:36 80° S 05:49:56 10° E visible
22 Oct 9.6 03:16:58 45° ESE 03:16:58 45° ESE 03:23:27 10° ENE visible
22 Oct 8.9 05:15:16 42° WSW 05:19:02 80° S 05:28:21 10° E visible
23 Oct 9.9 02:56:36 36° E 02:56:36 36° E 03:01:52 10° ENE visible
23 Oct 8.8 04:54:54 54° WSW 04:57:26 80° S 05:06:45 10° E visible
23 Oct 9.1 06:53:12 11° W 07:02:11 67° SSW 07:11:24 10° ESE visible
24 Oct 10.2 02:36:13 29° E 02:36:13 29° E 02:40:17 10° ENE visible
24 Oct 8.8 04:34:31 68° WSW 04:35:52 80° S 04:45:10 10° E visible
24 Oct 9.1 06:32:50 16° W 06:40:38 68° SSW 06:49:51 10° ESE visible
25 Oct 10.5 02:15:51 22° E 02:15:51 22° E 02:18:42 10° ENE visible
25 Oct 8.8 04:14:09 79° S 04:14:17 79° S 04:23:36 10° E visible
25 Oct 9.0 06:12:28 22° W 06:19:03 70° SSW 06:28:18 10° ESE visible
26 Oct 10.8 01:55:30 16° E 01:55:30 16° E 01:57:07 10° ENE visible
26 Oct 9.0 03:53:48 70° ESE 03:53:48 70° ESE 04:02:00 10° E visible
26 Oct 9.0 05:52:07 29° W 05:57:29 71° SSW 06:06:44 10° ESE visible
27 Oct 11.1 01:35:09 11° ENE 01:35:09 11° ENE 01:35:32 10° ENE visible
27 Oct 9.3 03:33:28 56° E 03:33:28 56° E 03:40:25 10° E visible
27 Oct 8.9 05:31:46 38° W 05:35:56 72° SSW 05:45:10 10° ESE visible
